This is the latest recevied weather packets stored in our database for station/object SR8NGO-1. If no packets are shown the sender has not sent any weather packets the latest 10 day(s).
| Time | Temp. | Humidity | Pressure | Rain* | Wind** | Luminosity | Snow |
|---|---|---|---|---|---|---|---|
| 1777374516 | 13.89° C | 65% | 1011.8 hPa | 137.92 mm | - | - | - |
| 1777374277 | 16.11° C | 67% | 1011.8 hPa | 137.92 mm | - | - | - |
| 1777374037 | 13.89° C | 73% | 1011.8 hPa | 137.92 mm | - | - | - |
| 1777373797 | 12.78° C | 73% | 1011.8 hPa | 137.92 mm | - | - | - |
| 1777373557 | 12.78° C | 73% | 1011.8 hPa | 137.92 mm | - | - | - |
| 1777373316 | 15° C | 72% | 1011.8 hPa | 137.92 mm | - | - | - |
| 1777373077 | 15° C | 72% | 1011.9 hPa | 137.92 mm | - | - | - |
| 1777372836 | 13.89° C | 74% | 1011.9 hPa | 137.92 mm | - | - | - |
| 1777372597 | 12.22° C | 75% | 1011.8 hPa | 137.92 mm | - | - | - |
| 1777372357 | 12.78° C | 74% | 1011.8 hPa | 137.92 mm | - | - | - |
| 1777372117 | 12.78° C | 76% | 1011.7 hPa | 137.92 mm | - | - | - |
| 1777371877 | 12.22° C | 73% | 1011.8 hPa | 137.92 mm | - | - | - |
| 1777371636 | 12.22° C | 75% | 1011.9 hPa | 137.92 mm | - | - | - |
| 1777371397 | 12.22° C | 73% | 1011.9 hPa | 137.92 mm | - | - | - |
| 1777371157 | 12.78° C | 72% | 1011.9 hPa | 137.92 mm | - | - | - |
| 1777370916 | 13.89° C | 72% | 1011.9 hPa | 137.92 mm | - | - | - |
| 1777370437 | 12.78° C | 72% | 1012 hPa | 137.92 mm | - | - | - |
| 1777370197 | 12.22° C | 74% | 1012.1 hPa | 137.92 mm | - | - | - |
| 1777369957 | 12.78° C | 74% | 1012.1 hPa | 137.92 mm | - | - | - |
| 1777369717 | 13.89° C | 75% | 1012 hPa | 137.92 mm | - | - | - |
| 1777369477 | 11.11° C | 74% | 1012.1 hPa | 137.92 mm | - | - | - |
| 1777369236 | 11.11° C | 73% | 1011.9 hPa | 137.92 mm | - | - | - |
| 1777368997 | 11.11° C | 72% | 1012.1 hPa | 137.92 mm | - | - | - |
| 1777368756 | 11.11° C | 70% | 1012.1 hPa | 137.92 mm | - | - | - |
| 1777368277 | 12.78° C | 68% | 1012.1 hPa | 137.92 mm | - | - | - |
* Rain latest hour (hover to see other rain measurements)
** Current wind speed in m/s (hover to see current wind gust speed)